Wind_Speed
18 18 18 18 18 19 19 19 19 20 20 20 19 19 18 19 19 19 19 19 19 19 18 17 17 16 16 15 15 15 17 18 21 23 16 10 14 18 16 13 15 18 22 24 25 24 22 21 18 17 16 15 13 8 8 7 5 9 12 13 13 9 8 4 3 5 3 3 3 13 7 5 10 13 17 14 11 11 11 10 5 5 4 7 14 20 25 27
17 17 17 17 17 18 18 18 19 19 19 19 19 19 19 19 19 19 19 19 18 19 19 18 18 17 17 16 15 15 15 16 19 16 7 10 17 17 14 12 14 17 21 24 24 24 23 21 19 18 17 15 12 9 10 10 10 16 15 14 15 8 6 5 5 4 3 3 4 13 7 4 11 17 17 12 14 15 14 14 11 12 12 11 14 21 26 25
18 17 17 17 17 17 17 18 18 19 19 19 19 18 18 18 19 19 19 18 18 19 19 19 19 18 18 17 16 16 15 15 16 9 7 14 19 17 16 14 13 15 18 21 22 23 23 21 19 18 17 15 12 10 9 10 13 17 15 17 15 7 5 5 5 5 2 3 9 12 10 10 10 14 15 14 16 15 18 18 14 12 12 12 13 21 27 26
19 18 18 18 18 18 18 18 18 18 19 19 18 18 18 18 19 19 19 18 18 18 19 20 19 19 19 17 17 16 16 15 14 10 12 19 20 18 17 15 13 14 16 19 22 23 22 21 20 18 18 16 12 12 12 12 13 16 17 17 10 6 7 5 7 6 2 5 12 11 12 12 9 12 11 15 17 14 17 16 10 7 9 12 13 20 27 27
19 19 19 19 19 19 19 19 19 19 19 19 18 18 18 18 18 19 19 18 18 18 19 20 20 20 20 19 18 17 16 16 13 9 12 18 20 16 15 15 14 14 15 20 23 24 24 22 20 17 17 17 15 15 17 16 14 15 17 15 10 10 9 7 9 6 4 3 8 9 6 8 9 9 9 14 17 14 14 12 7 4 7 12 14 20 26 26
21 21 21 20 20 20 20 20 20 19 19 19 19 18 18 18 18 19 19 19 18 17 18 20 20 20 20 20 19 17 16 14 13 9 7 14 19 17 15 15 15 15 17 21 24 25 26 24 22 19 17 17 18 18 17 16 17 17 16 14 14 15 12 10 11 10 7 3 6 7 3 6 12 9 9 14 14 12 12 11 7 7 7 12 13 18 25 25
22 22 22 22 22 22 22 22 21 21 20 20 20 19 19 18 19 19 18 18 19 18 18 19 20 20 20 21 20 19 17 13 14 14 10 10 15 18 17 17 17 17 18 21 25 26 27 27 25 22 20 18 19 19 16 14 16 18 18 16 16 15 14 12 10 12 10 5 4 6 4 9 10 9 9 13 12 10 13 13 8 9 9 11 14 17 21 23
23 23 23 23 23 24 24 24 23 23 22 22 21 20 19 19 19 19 18 18 19 18 18 19 20 20 20 20 20 21 17 12 15 17 13 11 13 16 19 19 18 17 16 18 23 26 27 28 27 24 22 21 19 17 16 16 18 21 20 16 17 18 16 14 9 12 12 9 3 6 13 9 8 10 9 11 12 12 14 14 10 9 11 12 15 17 18 22
24 24 24 24 24 25 25 25 25 25 25 24 23 22 21 20 20 19 19 19 19 19 18 19 20 20 20 20 21 21 13 9 15 17 14 12 13 15 18 19 19 17 15 16 20 25 28 29 27 25 22 20 18 16 15 17 21 22 20 17 19 20 18 16 12 12 10 12 7 6 11 9 10 10 11 14 15 14 16 15 10 9 13 15 16 17 18 21
25 25 25 25 25 25 26 26 26 26 26 26 25 24 23 22 21 21 20 19 19 19 19 19 20 20 20 21 22 18 9 10 14 15 15 13 13 16 17 18 19 18 16 15 18 24 28 28 24 21 20 17 17 18 17 18 20 20 19 17 20 22 19 18 15 13 10 13 11 11 8 10 13 9 15 18 16 18 17 14 9 6 12 15 16 17 18 19
24 25 25 25 25 26 26 26 27 27 27 27 27 26 25 24 23 22 22 21 20 19 19 19 20 21 21 23 23 14 9 15 16 16 16 14 13 14 16 18 19 19 18 16 17 21 26 26 20 17 19 19 18 17 18 21 20 19 18 18 19 21 20 20 17 14 11 13 12 14 10 9 14 11 16 18 17 20 14 10 9 8 11 13 15 17 17 18
23 24 25 25 25 26 26 26 26 26 27 27 27 27 26 26 25 25 23 23 22 21 21 20 21 22 22 25 20 9 11 18 20 19 18 16 14 14 16 18 18 18 18 18 16 17 24 24 19 18 20 18 18 18 19 21 22 21 20 21 20 19 19 19 18 16 11 11 11 14 13 13 14 12 16 18 18 19 13 9 11 10 11 11 13 16 17 17
24 25 26 26 26 27 27 26 26 26 26 27 28 28 27 26 26 26 25 25 24 23 22 21 22 22 25 27 16 10 15 18 21 23 21 18 13 13 17 17 17 18 18 18 16 16 23 25 21 21 20 16 17 17 17 17 20 21 20 20 20 21 23 22 20 18 15 13 12 15 17 18 15 12 21 23 20 19 15 12 12 12 11 10 11 14 15 17
25 26 27 28 28 28 28 28 27 27 26 27 27 27 27 26 26 26 26 26 25 25 24 23 24 23 28 26 13 14 20 19 23 24 22 19 11 12 15 16 16 17 18 18 17 18 22 24 20 21 22 21 20 16 16 18 20 20 18 19 22 22 23 22 20 19 21 19 15 16 18 17 13 17 26 24 20 20 19 15 14 14 11 11 12 12 13 14
26 27 28 29 29 29 30 30 29 28 27 27 27 27 26 26 26 26 26 26 26 26 26 26 26 26 30 25 15 18 22 23 24 21 20 19 15 14 14 14 15 16 17 18 18 21 22 20 21 24 24 24 22 20 20 22 22 21 19 20 23 24 21 19 20 21 23 22 19 18 18 17 14 25 29 23 22 22 20 18 17 17 14 12 14 12 11 12
25 26 27 29 29 30 30 31 31 31 30 28 28 27 26 25 25 26 26 25 26 26 27 28 27 28 29 23 17 19 21 21 19 18 21 20 19 19 15 13 15 16 17 17 20 21 21 19 22 24 25 23 24 23 22 24 24 21 21 21 19 23 23 20 20 22 23 22 23 22 18 18 16 24 32 27 25 24 22 22 20 19 17 14 14 13 13 13
25 26 27 28 29 30 31 32 33 33 32 31 30 29 27 26 26 26 25 24 25 25 27 29 29 31 28 22 17 13 13 15 16 19 23 22 20 18 15 16 15 16 17 16 19 21 20 20 22 24 25 25 25 24 24 27 27 22 23 25 21 20 24 25 23 24 26 23 24 24 20 20 18 21 31 29 24 23 23 24 22 22 21 19 16 13 16 16
25 26 27 27 28 29 30 32 33 35 35 35 34 33 30 26 26 26 24 23 24 24 26 28 30 30 25 22 21 16 12 13 15 19 23 22 21 18 19 19 17 15 17 17 19 22 22 22 23 24 27 30 29 30 31 29 27 24 23 25 24 22 23 26 25 23 28 28 26 25 22 19 18 22 31 26 21 21 24 27 23 21 23 23 20 15 17 18
27 27 28 28 28 28 30 31 32 35 36 36 37 35 31 26 24 25 24 21 22 23 23 25 29 30 23 19 19 19 18 13 12 18 22 23 22 20 22 22 19 18 20 22 24 24 24 24 25 30 34 36 35 36 35 28 23 23 23 23 25 25 23 24 26 22 25 33 30 26 24 19 18 27 31 24 21 17 20 25 22 20 24 24 22 18 17 18
27 28 29 28 27 28 29 30 31 34 34 37 39 38 36 33 29 30 29 22 20 22 25 26 30 35 30 21 16 18 20 18 16 17 20 23 22 22 24 25 22 23 26 28 27 26 26 27 33 39 39 36 35 35 33 27 23 23 24 25 24 25 24 23 27 24 22 33 34 27 25 22 20 26 28 24 22 20 21 24 22 21 24 25 24 20 17 15
28 29 29 28 26 27 28 29 30 32 33 36 39 40 42 41 38 38 39 32 23 22 27 29 31 37 34 26 20 18 20 23 22 19 19 21 23 25 27 29 28 30 32 31 27 24 26 33 40 41 36 32 31 32 31 28 26 26 27 28 25 24 26 23 23 22 22 30 32 27 27 25 23 25 26 25 24 24 25 24 21 22 24 26 25 21 17 13
28 28 28 28 26 27 28 27 28 30 30 33 35 37 38 39 39 41 45 44 35 26 28 30 33 39 35 28 24 21 24 26 24 23 20 20 25 29 30 32 34 35 33 30 29 26 30 41 45 37 31 30 28 28 30 30 29 29 29 30 29 25 25 24 22 21 22 29 30 27 28 27 26 27 27 28 27 26 26 22 20 22 27 28 25 21 19 16
29 28 27 27 26 26 27 26 27 27 28 31 32 34 34 35 38 40 44 50 46 34 29 29 31 36 36 30 25 26 32 31 27 26 23 24 30 31 31 34 36 35 34 34 35 34 36 41 40 34 28 29 30 29 29 31 31 31 30 30 33 31 26 24 24 20 20 27 28 26 28 27 27 28 29 30 30 27 24 22 21 23 27 26 23 21 20 18
30 28 27 27 26 25 26 26 24 25 27 28 27 29 31 31 36 41 45 50 50 33 21 24 28 31 32 27 24 30 36 33 31 29 25 28 32 31 32 35 36 36 36 37 38 40 41 34 27 30 32 29 31 31 30 32 33 34 33 31 32 33 30 26 23 21 22 26 27 26 26 27 28 28 29 30 31 32 30 25 22 24 27 23 21 21 20 18
30 29 28 28 26 24 25 25 23 23 25 24 24 24 26 28 32 39 43 47 43 27 16 15 16 17 19 22 27 33 36 35 34 31 28 30 33 34 34 33 36 39 37 37 38 41 43 31 17 21 31 32 32 33 34 34 33 35 36 34 31 31 31 29 25 22 22 24 30 30 20 21 29 30 30 31 31 32 30 28 27 27 29 27 25 23 21 20
30 29 29 28 27 25 24 24 22 22 22 22 22 22 22 26 28 33 38 38 30 21 19 13 7 7 7 20 30 32 33 40 38 30 29 32 32 33 33 34 36 39 37 34 35 39 42 36 23 19 26 33 34 34 35 34 33 33 34 34 32 30 30 30 29 27 22 17 26 36 23 17 28 32 31 34 35 33 29 30 32 32 33 31 28 26 23 22
29 29 29 27 28 26 23 23 22 21 21 20 21 21 22 22 22 27 29 21 15 15 18 14 9 11 11 10 25 32 30 34 38 36 32 32 33 34 34 35 35 36 35 31 33 40 39 36 33 27 27 32 36 37 35 35 36 33 30 29 32 33 32 32 31 29 26 21 19 36 35 20 25 33 32 34 37 36 34 34 33 34 35 33 30 28 26 23
29 28 28 27 27 27 25 23 21 20 20 21 22 21 21 18 17 20 16 6 9 12 15 12 6 7 10 9 18 32 30 22 27 36 37 33 32 37 38 37 35 33 34 34 38 40 36 37 38 34 32 33 37 38 35 34 36 33 26 24 28 32 32 33 33 31 28 25 18 27 37 20 17 31 33 33 37 36 36 37 35 34 35 35 34 30 29 26
28 27 27 26 25 25 25 23 21 20 20 22 23 21 20 16 14 13 5 2 11 16 16 10 5 4 5 6 13 24 27 17 12 18 29 36 34 36 41 39 33 30 31 38 40 33 29 34 35 34 36 36 34 33 32 33 34 32 26 23 24 27 30 31 32 33 30 22 19 21 29 17 12 28 35 34 39 39 37 37 36 36 35 36 37 34 32 29
28 27 27 27 26 24 21 21 22 20 20 22 21 20 19 15 12 8 1 5 13 19 19 13 8 5 3 7 7 15 25 22 11 7 18 35 36 35 38 36 33 31 30 34 38 34 29 27 28 35 38 36 31 28 30 31 31 30 27 26 25 24 28 28 30 34 24 14 22 29 25 16 9 23 34 36 39 40 39 38 36 39 39 39 40 38 36 32
29 28 27 27 27 23 20 19 19 18 20 23 20 18 17 14 9 3 3 9 14 18 20 16 12 10 5 9 9 8 19 25 22 14 16 30 38 36 35 34 35 34 31 34 37 35 32 27 28 33 35 33 30 28 28 28 30 30 27 29 27 22 24 24 27 30 16 7 24 33 28 21 13 15 27 34 37 36 38 39 35 38 42 42 42 40 38 34
30 30 28 28 27 23 20 20 20 19 23 23 18 18 16 12 5 5 10 16 14 16 23 22 22 20 14 12 10 8 13 23 27 23 20 27 37 40 39 38 37 34 32 34 33 31 36 38 32 28 30 34 33 30 29 28 31 33 30 30 23 12 13 14 12 16 11 10 22 28 25 22 19 19 23 27 30 29 33 37 33 34 41 43 44 42 39 36
32 31 29 28 27 23 21 21 22 24 24 19 17 18 12 7 4 7 15 20 17 19 26 31 30 26 24 20 11 14 18 16 24 27 26 25 32 40 42 39 36 34 33 29 27 29 32 36 37 33 31 34 37 34 31 31 35 35 35 34 23 9 5 7 5 4 7 14 23 25 22 21 23 28 27 23 23 22 28 33 28 30 42 45 43 42 40 39
32 32 29 27 27 24 22 24 25 27 22 17 17 16 8 5 5 9 14 18 22 26 28 34 34 28 26 21 11 19 23 9 9 17 27 28 30 36 40 41 37 34 32 25 25 29 25 25 39 44 35 32 38 39 32 30 34 37 37 34 30 22 10 4 5 4 2 8 21 26 19 15 19 28 31 26 22 21 23 28 26 25 37 45 44 42 42 41
31 32 28 26 25 21 21 24 26 26 20 16 18 12 8 8 9 14 17 19 24 29 32 34 32 28 24 19 14 23 19 10 12 14 17 28 32 31 33 40 41 36 31 26 26 30 26 26 37 41 35 30 34 39 34 28 30 35 36 34 33 34 22 7 6 12 7 2 11 22 20 16 17 21 24 25 26 27 23 25 28 24 28 37 43 45 43 41
30 31 26 24 24 19 17 22 26 24 16 15 15 11 10 11 12 16 19 20 22 27 32 32 27 25 25 25 27 25 16 18 25 18 6 11 24 33 32 34 38 38 35 31 27 26 25 28 30 31 36 36 31 35 37 31 28 31 37 39 34 33 30 16 7 13 12 2 7 18 21 24 25 21 20 23 28 32 30 28 29 28 28 33 41 46 43 40
30 26 19 20 23 19 21 26 25 19 13 13 12 12 12 12 13 16 17 20 21 21 24 25 21 21 24 29 33 28 26 29 27 21 15 14 9 21 25 27 32 35 37 36 32 27 23 24 25 27 35 40 33 31 36 35 29 30 38 41 31 25 29 24 10 7 9 4 8 20 24 24 25 24 26 27 28 32 35 33 30 28 32 37 41 45 43 38
32 22 16 22 27 25 28 28 22 13 9 10 12 12 12 11 13 16 17 18 19 17 18 18 16 18 22 28 30 29 32 31 26 26 25 19 11 8 8 5 12 15 21 30 37 37 29 22 22 29 33 37 37 33 36 39 36 32 34 37 31 22 25 26 14 5 7 4 5 18 27 26 27 31 32 30 31 32 33 35 35 30 31 42 46 43 42 40
32 18 12 20 25 26 23 20 15 9 6 10 13 12 12 12 13 15 16 18 18 16 15 16 16 18 19 23 27 27 28 26 26 29 24 18 19 19 21 17 4 5 4 8 22 37 39 24 17 27 33 35 38 38 40 43 42 36 30 34 38 29 24 27 22 11 6 4 4 10 14 18 26 33 34 31 29 32 31 31 36 36 32 41 48 44 43 42
32 17 5 6 17 19 16 13 14 11 6 11 14 13 12 14 15 14 13 16 17 16 16 16 17 18 19 20 23 24 25 24 24 26 22 22 26 20 12 18 14 3 9 8 10 26 42 35 23 25 31 37 41 42 44 45 45 43 35 34 39 33 25 25 25 24 14 2 2 5 5 12 22 26 31 32 27 30 33 29 32 38 36 38 44 44 45 41
34 21 5 10 15 20 21 16 10 10 11 11 12 11 11 15 17 15 13 14 15 14 15 16 16 17 18 19 19 22 25 25 23 24 24 24 24 19 11 20 25 13 0 8 11 11 22 34 34 32 28 35 44 46 45 43 44 46 40 34 36 36 29 18 15 26 28 13 6 4 3 11 17 16 23 30 26 27 32 30 29 35 35 36 40 41 42 38
37 27 10 8 10 19 26 18 6 9 13 11 11 12 13 15 16 15 14 13 12 13 15 15 15 16 15 17 20 21 23 24 22 20 21 21 23 24 19 20 27 22 21 19 12 9 14 21 33 37 31 28 36 43 43 40 41 45 41 34 33 38 37 23 11 20 28 22 18 13 6 7 9 9 18 29 26 24 28 28 26 31 32 33 39 39 39 38
40 33 14 6 7 12 19 13 6 10 14 12 13 14 14 14 14 15 15 14 13 15 16 14 14 15 15 17 19 21 22 21 18 17 20 23 29 29 22 20 25 22 28 28 13 7 9 15 23 33 37 31 31 38 43 41 39 42 43 39 33 35 39 31 18 19 25 24 21 12 5 8 8 7 9 26 25 24 27 22 20 29 33 31 36 37 35 38
42 38 22 13 15 13 11 11 10 14 15 14 15 16 14 13 13 14 15 14 14 14 15 15 14 16 18 19 18 18 19 17 15 18 24 29 34 32 23 21 24 21 26 25 19 15 10 12 12 16 21 23 24 28 37 43 42 40 43 44 38 33 35 33 24 20 21 24 26 13 4 11 10 4 13 21 22 23 22 15 15 27 33 30 33 34 30 32
44 41 32 27 20 6 3 7 10 14 14 13 15 16 14 13 13 13 14 14 12 11 14 16 15 17 18 18 16 16 16 15 16 21 25 31 37 36 27 22 22 18 23 26 23 21 18 14 11 10 8 8 8 10 25 43 45 40 39 42 42 36 32 34 30 22 17 20 27 22 10 10 12 9 14 20 18 20 17 12 16 23 28 30 30 33 32 30
44 41 38 37 21 1 7 6 7 9 9 12 17 17 15 16 15 14 13 12 10 12 14 16 15 16 17 17 18 17 15 15 17 22 26 31 36 36 30 22 19 17 23 27 18 12 15 16 14 15 15 11 5 5 15 41 46 36 35 37 41 41 34 33 33 26 19 18 25 28 20 14 15 16 15 12 10 16 17 17 20 21 27 33 29 30 34 31
42 39 36 36 23 6 6 8 10 13 9 13 20 19 17 18 16 14 12 10 11 14 15 15 14 15 16 18 20 19 17 17 19 22 24 27 33 35 33 25 19 21 23 23 15 11 15 17 16 16 17 18 14 6 8 35 49 42 37 35 38 43 39 33 34 31 24 16 18 25 24 18 19 18 16 11 10 15 18 19 21 21 28 33 28 29 34 32
41 38 32 27 22 18 16 13 13 14 11 14 18 17 17 17 16 15 14 12 14 16 16 18 18 15 15 18 20 20 19 19 20 21 22 23 29 33 33 24 17 23 25 19 18 21 21 15 13 15 16 19 22 11 5 15 36 41 39 35 34 41 44 39 33 32 30 21 14 20 25 21 18 16 14 12 14 20 21 16 17 22 28 27 24 29 36 37
40 39 32 24 20 20 19 17 17 15 12 13 15 15 17 17 15 14 14 16 17 16 17 22 21 16 15 17 19 19 19 19 19 19 20 22 24 28 30 24 14 13 19 19 18 25 23 16 13 16 15 15 21 19 10 6 14 25 36 40 35 36 43 44 34 26 29 26 18 20 26 23 17 14 13 14 17 23 22 17 18 23 24 22 24 34 40 40
39 37 31 26 22 19 16 15 15 14 12 11 11 14 16 17 17 17 17 18 18 18 19 21 21 18 17 17 17 17 17 19 21 19 18 20 19 20 24 27 21 12 14 22 19 24 24 23 20 20 13 9 16 22 16 10 7 9 22 36 39 34 37 44 40 29 26 26 23 21 21 20 18 18 18 19 21 25 24 22 24 24 22 21 27 36 40 40
38 34 27 25 24 19 15 13 13 15 15 11 9 13 14 16 18 21 22 19 15 17 19 19 21 22 19 17 17 17 15 16 19 19 17 18 18 17 19 24 27 24 22 25 23 22 26 27 25 24 17 8 12 22 17 12 11 9 10 22 34 32 31 39 43 36 28 27 26 22 20 24 26 25 23 22 24 26 25 24 24 23 23 24 24 29 35 37
37 32 22 20 24 20 15 14 14 16 16 12 12 15 16 17 17 18 21 20 14 13 17 19 21 22 21 21 19 18 16 15 17 19 20 19 18 18 19 20 21 25 28 28 25 22 23 26 28 25 18 12 3 17 17 12 8 10 9 14 26 23 20 33 43 39 30 27 28 25 22 26 26 22 22 25 25 24 23 22 22 22 24 24 20 20 27 29
Wind_Direction
316 315 313 313 311 310 309 308 307 306 305 305 306 306 305 304 302 300 300 300 300 300 298 296 292 288 285 283 279 272 263 255 252 250 245 225 224 231 228 220 220 216 212 209 207 205 204 206 206 205 207 207 206 181 175 195 207 244 253 262 273 279 301 304 249 278 216 339 56 146 140 144 139 127 140 149 138 110 121 154 171 196 195 177 177 166 165 168
322 320 318 317 315 314 311 309 307 305 304 304 304 303 302 301 300 299 297 297 298 299 298 295 293 289 286 285 283 278 272 263 255 251 236 227 228 229 230 220 216 216 213 211 209 206 203 204 204 205 207 207 199 169 176 189 200 226 242 257 267 277 299 285 226 225 230 323 116 142 130 130 137 144 152 142 134 125 131 159 180 180 162 155 169 168 168 172
325 323 322 321 319 317 314 312 310 307 306 305 304 302 300 298 297 296 295 295 294 294 295 294 292 289 287 285 285 282 279 273 262 244 185 218 225 221 225 220 214 214 211 210 210 207 204 202 202 205 206 204 193 176 183 185 204 224 233 246 258 279 298 277 204 171 211 185 153 157 152 143 153 171 161 139 151 153 152 167 181 174 156 154 166 171 173 175
326 325 324 322 320 319 317 315 312 311 309 307 307 304 301 298 295 294 293 293 291 289 289 289 290 288 288 286 285 285 285 282 269 237 203 219 223 216 219 220 219 215 206 204 207 205 201 200 199 201 203 203 188 178 197 198 208 225 230 241 257 284 290 252 185 146 151 160 154 165 155 140 159 189 174 152 162 171 174 185 197 186 175 169 165 172 176 178
325 324 322 321 320 318 316 315 313 313 311 309 309 307 304 300 296 293 291 290 288 286 284 284 286 286 287 286 283 284 286 284 276 246 212 223 230 223 216 219 221 215 206 201 203 201 199 198 194 196 199 197 187 186 200 204 210 222 231 248 260 261 274 243 211 186 188 185 157 152 131 136 154 182 196 172 170 183 192 198 192 175 183 177 169 173 178 181
323 322 321 320 318 316 314 312 312 310 309 308 308 307 305 302 298 295 292 289 286 283 281 280 280 282 284 284 283 283 279 279 284 278 226 221 232 229 217 216 217 212 207 201 199 199 199 195 189 193 201 194 188 196 201 199 208 222 232 244 248 249 262 253 228 209 198 190 157 123 74 182 169 171 186 180 183 195 207 212 178 137 157 172 171 174 180 185
322 321 319 318 316 314 312 310 309 307 306 304 304 304 303 302 299 295 293 290 287 282 278 276 275 276 278 280 282 279 277 279 279 271 248 222 227 228 221 214 213 212 208 203 198 198 198 196 189 189 203 203 193 197 199 200 211 223 230 238 250 253 257 257 235 226 220 193 165 126 168 212 185 166 169 183 194 196 204 211 184 145 151 166 172 174 180 188
323 321 320 318 316 314 312 310 308 306 304 301 300 300 299 299 297 296 294 290 288 284 278 274 272 271 272 276 277 276 283 286 272 265 252 230 223 226 226 219 213 212 209 206 201 198 198 198 192 187 201 209 202 197 193 208 220 223 230 234 248 255 255 263 261 254 230 193 220 157 168 198 192 173 164 167 179 200 206 201 193 172 161 163 171 172 175 187
327 324 322 320 318 316 313 311 308 306 304 301 299 297 295 294 293 293 292 290 288 285 280 274 270 269 267 269 269 273 283 275 265 268 262 239 224 223 228 225 216 212 208 206 203 200 199 198 194 189 198 208 212 208 194 213 224 222 233 229 237 254 258 259 266 274 235 194 238 216 173 179 184 178 169 161 164 195 206 199 203 188 172 168 169 171 173 182
329 327 325 323 322 319 316 313 310 308 304 302 299 296 294 291 290 289 288 288 286 284 282 276 272 267 264 263 263 268 271 255 254 260 261 248 231 221 223 227 221 214 210 206 204 202 201 196 192 191 198 209 219 222 209 217 227 227 237 231 232 248 254 254 260 275 242 195 212 235 220 187 186 180 176 177 174 187 197 200 203 181 177 174 170 172 173 179
336 333 331 329 327 323 320 317 313 310 306 303 300 296 294 291 288 285 284 283 283 283 280 277 273 268 264 259 258 261 249 248 251 250 252 249 240 229 221 225 225 218 210 209 207 205 204 193 184 193 205 211 215 227 224 219 227 232 237 238 235 240 249 252 254 265 242 202 207 229 238 198 191 191 187 191 187 190 203 200 183 164 167 169 174 175 174 180
347 345 342 340 337 333 329 324 320 315 310 305 301 297 294 292 288 284 282 280 279 278 277 277 273 269 263 257 254 254 243 246 252 250 247 242 239 237 227 219 222 220 211 210 207 204 205 187 175 198 210 215 215 224 227 222 232 238 241 245 238 232 240 248 255 264 246 221 217 218 226 214 208 205 193 190 181 192 215 201 180 168 159 160 173 176 178 183
353 351 349 347 345 341 337 334 330 324 318 311 304 300 296 292 288 284 281 278 277 275 274 274 271 270 263 256 249 242 245 246 250 251 251 247 226 220 228 219 213 215 211 210 205 204 203 183 177 200 206 217 225 226 226 220 231 240 243 244 239 232 229 236 253 255 242 234 220 213 220 220 224 203 184 188 185 192 205 198 190 182 170 170 174 176 182 187
352 352 350 349 348 345 342 340 337 333 328 321 312 305 300 295 289 284 281 277 275 273 272 271 270 269 263 258 251 244 243 241 246 250 255 258 231 204 217 218 211 209 207 206 201 199 193 180 186 206 209 215 223 230 231 224 231 242 242 238 239 238 229 231 241 234 229 231 219 216 221 223 221 186 181 194 197 191 193 191 193 197 194 189 182 174 183 195
350 350 350 349 349 347 345 343 341 339 336 331 324 315 307 299 291 285 281 277 275 273 271 269 267 267 265 262 256 245 238 236 244 252 255 257 247 230 228 222 215 210 205 201 202 194 182 184 200 211 215 216 219 227 232 232 238 245 244 240 234 232 233 235 231 223 222 225 219 220 226 230 215 188 191 202 200 196 198 194 191 202 209 203 194 179 183 198
345 348 350 349 349 349 348 346 345 344 342 339 333 326 318 308 298 288 281 276 273 271 270 268 266 265 266 267 260 248 244 245 250 253 251 249 240 237 242 237 218 209 206 197 199 191 178 194 210 215 217 216 219 225 232 241 242 239 236 239 233 224 230 234 229 224 223 220 216 219 222 227 225 205 203 202 201 206 207 199 189 195 208 213 208 191 189 198
341 344 348 348 347 349 349 348 348 348 346 344 342 337 331 321 309 296 286 280 273 269 267 266 265 264 263 263 257 246 244 241 235 237 242 242 236 227 223 232 225 208 206 196 194 189 183 198 212 217 219 217 219 220 228 237 237 233 227 230 234 226 223 225 228 229 226 217 210 214 215 221 232 212 197 192 197 204 197 194 190 189 201 214 217 203 196 201
340 341 345 346 344 346 349 348 348 349 348 348 347 343 338 330 318 305 294 286 277 268 265 264 263 262 259 256 250 238 230 225 218 225 234 235 232 219 202 214 229 213 202 202 201 195 191 199 210 218 220 218 216 214 221 225 223 226 224 220 226 233 230 224 226 230 222 211 203 206 208 218 225 195 183 181 189 196 190 194 201 198 202 211 219 215 203 201
339 338 340 342 341 341 346 345 345 347 347 348 348 343 337 330 322 313 304 294 283 272 266 262 257 254 250 250 246 229 219 217 214 218 226 227 223 215 197 196 219 217 202 207 209 202 198 202 209 216 218 217 213 212 217 221 216 220 223 217 216 227 236 230 231 237 219 204 198 201 206 215 213 189 184 188 195 204 198 199 209 207 204 210 217 221 215 205
336 335 335 338 338 336 341 342 341 344 345 346 345 343 341 337 332 324 315 305 291 279 267 260 257 254 248 245 242 226 210 204 213 220 224 225 217 211 196 188 206 215 207 208 209 206 203 208 214 215 215 216 216 214 215 219 218 219 226 228 221 219 226 231 235 238 215 198 194 197 206 211 206 195 194 199 207 215 207 201 206 206 208 214 216 221 225 215
332 331 330 332 334 333 336 339 338 340 342 344 344 348 351 348 343 334 321 308 297 290 274 261 257 255 248 237 231 226 212 201 206 214 222 224 213 206 196 187 198 211 211 208 208 211 208 215 219 216 215 215 217 218 216 217 218 222 231 237 238 225 220 227 236 239 222 202 195 193 202 208 206 205 204 205 210 210 202 200 208 214 216 219 221 222 223 211
331 330 328 329 332 330 332 336 335 336 339 341 344 351 354 351 347 340 328 314 305 303 288 269 256 255 251 238 224 219 219 212 207 206 211 216 209 204 197 190 197 208 211 205 204 209 212 221 221 215 216 216 215 219 218 217 218 224 232 240 249 241 231 227 226 244 234 205 198 195 198 207 211 213 212 210 207 199 195 206 220 222 218 220 223 219 215 204
333 332 329 328 330 330 330 334 334 333 336 341 344 351 353 350 345 339 333 321 313 312 303 282 263 255 252 243 224 216 224 222 214 208 203 206 208 205 199 195 199 206 208 204 202 204 213 226 224 213 214 216 215 216 216 219 220 224 229 235 244 242 245 241 224 237 233 200 194 195 197 207 213 215 215 213 211 207 213 227 231 222 219 225 225 214 213 212
334 332 330 328 329 331 329 331 334 333 336 342 344 348 348 347 344 338 335 327 321 328 324 289 268 257 253 247 226 220 229 228 219 211 201 205 208 206 203 200 202 205 207 207 205 206 214 226 227 214 212 214 216 215 214 217 220 223 225 227 237 238 244 251 235 232 227 207 200 195 197 206 210 212 214 216 218 222 231 235 226 216 217 224 223 217 221 226
333 332 331 328 328 331 329 330 334 334 335 340 341 345 345 344 346 340 335 329 330 350 359 309 282 271 254 235 222 218 225 228 223 212 201 206 210 206 203 202 205 208 207 208 210 214 218 221 227 219 211 210 216 216 214 215 217 222 223 222 229 236 241 248 250 246 233 216 202 194 194 205 209 212 213 213 214 217 227 231 223 214 210 211 211 216 225 226
334 332 332 330 328 330 332 330 332 334 334 335 337 342 344 344 347 343 337 331 335 3 9 349 344 333 268 225 219 212 220 228 222 212 202 206 214 209 201 202 209 211 209 209 212 220 223 218 220 225 214 210 214 218 215 214 218 222 223 221 222 231 240 243 252 258 251 237 205 193 193 200 204 210 213 212 210 211 219 226 222 209 205 209 210 217 225 223
335 333 333 331 328 330 331 329 332 335 333 333 337 340 342 346 349 346 344 333 329 0 6 2 13 2 348 267 224 204 215 230 219 212 206 202 210 210 203 205 210 212 208 207 216 222 223 218 215 219 218 213 213 217 215 212 218 223 222 222 222 226 236 239 249 259 259 267 233 198 197 199 196 203 210 211 210 211 213 220 220 211 209 215 218 224 227 224
336 335 334 332 330 329 330 331 332 332 331 333 337 339 342 347 347 348 356 341 319 350 0 354 343 347 6 324 244 211 212 232 225 217 208 200 207 209 208 209 210 213 206 203 217 222 219 218 214 212 217 218 216 217 215 212 218 222 219 219 222 224 231 238 245 256 259 269 266 210 200 202 196 200 207 210 211 213 214 218 221 218 217 219 223 229 230 227
336 335 334 334 332 329 327 328 330 333 336 337 339 342 344 344 341 346 9 270 315 337 343 329 278 288 30 359 273 232 220 228 244 235 211 204 207 209 211 211 207 215 214 210 219 224 221 223 218 212 217 220 221 220 217 215 217 219 218 217 223 224 226 234 241 252 260 262 273 241 205 200 205 204 209 210 211 214 213 214 219 223 225 223 224 227 229 228
336 335 336 336 334 330 326 328 333 336 340 343 346 348 345 342 338 336 222 262 314 330 322 297 261 269 5 11 310 244 232 225 220 257 223 207 206 210 216 216 210 214 221 219 223 226 225 229 225 218 217 219 223 225 219 217 216 215 217 218 225 227 224 227 231 242 258 253 258 258 233 227 230 208 213 213 209 210 209 209 215 222 227 226 225 225 226 226
334 333 336 336 334 332 328 328 327 326 341 353 357 357 352 348 337 280 246 290 306 323 318 299 283 278 304 350 345 274 249 233 214 225 229 208 204 208 211 214 214 217 226 227 225 227 227 228 227 222 220 217 219 224 219 215 213 212 213 216 225 231 223 221 219 225 242 247 246 254 251 252 254 221 221 214 206 209 211 211 215 219 224 226 224 224 224 222
331 332 333 331 333 336 329 322 322 334 354 359 2 10 7 354 331 244 286 308 312 327 332 328 311 294 295 312 324 332 285 244 225 224 222 209 205 206 207 208 210 214 223 227 223 224 227 227 226 224 222 216 214 221 217 208 209 210 210 212 216 219 217 216 209 212 223 233 239 248 254 255 257 251 237 215 208 216 219 217 217 217 219 223 224 223 223 221
332 331 330 329 333 335 329 326 339 356 360 354 3 18 13 344 317 289 307 324 326 316 322 330 319 304 307 304 299 342 326 261 232 231 229 220 209 208 209 209 210 213 218 223 221 219 224 227 226 224 223 215 210 216 212 201 202 206 208 208 204 193 198 208 203 214 224 223 227 238 250 253 251 251 245 230 219 222 223 216 212 215 217 219 223 223 222 221
335 331 330 336 334 331 337 345 353 356 349 348 8 14 352 307 311 316 314 314 304 295 309 328 328 323 322 304 298 349 339 288 235 248 243 233 216 209 211 211 213 217 218 221 223 220 219 222 221 219 220 216 210 211 210 202 200 204 207 208 206 205 202 185 198 208 187 207 214 219 233 244 244 243 244 243 227 213 222 217 203 211 221 220 218 217 216 215
339 333 334 341 335 332 345 350 349 345 341 357 9 1 332 315 324 334 324 306 294 292 306 322 327 332 327 303 319 356 344 316 342 326 258 236 226 216 212 211 211 215 219 221 225 224 224 228 225 219 216 217 214 210 208 206 202 203 206 211 213 210 208 210 214 207 190 157 208 210 220 230 239 246 243 244 235 217 220 223 211 214 226 223 215 209 209 211
343 338 336 340 339 338 345 344 341 339 346 4 356 335 327 320 323 335 327 313 305 300 310 320 326 330 328 326 338 346 332 330 341 335 291 247 237 224 217 215 214 217 219 220 224 223 225 232 230 222 217 216 215 210 206 206 204 198 201 211 215 209 210 220 220 201 197 211 225 219 230 233 232 243 236 230 234 226 222 225 221 219 222 221 214 206 205 211
351 343 332 340 346 338 332 335 334 335 359 7 336 317 321 315 318 327 320 315 315 311 315 322 326 327 326 332 337 334 329 338 340 326 337 354 279 225 216 217 215 221 227 229 233 233 237 244 231 219 218 213 209 210 207 208 208 199 201 208 208 202 211 222 222 185 189 215 222 216 227 231 223 230 233 223 224 227 225 222 217 219 220 215 210 205 205 211
357 351 340 353 349 331 329 333 328 335 0 343 319 319 321 315 320 320 317 323 324 320 316 314 317 323 324 324 325 328 331 331 329 328 334 344 354 30 23 290 220 220 234 237 240 237 241 257 237 218 218 211 206 207 206 209 211 208 204 202 199 196 205 213 214 193 192 206 216 212 218 224 221 224 230 226 220 220 226 223 214 214 216 205 201 204 208 213
-0 2 14 9 340 324 335 339 335 0 2 309 310 320 316 314 317 309 312 326 328 321 314 312 316 319 320 319 318 324 329 323 322 327 328 325 332 356 9 0 5 139 170 243 253 241 237 255 253 222 215 208 206 207 204 205 208 212 209 198 199 206 206 204 207 211 205 191 212 216 214 221 227 229 231 230 221 212 216 223 214 208 209 201 199 205 210 212
358 360 32 344 311 322 341 330 330 343 310 296 309 312 311 313 312 309 312 319 319 317 311 310 317 319 318 321 320 320 321 321 323 320 310 309 317 322 355 17 21 100 167 182 228 234 233 242 255 240 217 201 203 207 205 202 201 207 211 197 193 203 208 204 208 214 221 241 193 208 223 227 229 236 237 231 217 203 205 216 212 204 205 205 204 210 213 213
356 1 344 275 304 337 330 311 331 329 293 296 311 311 315 317 316 320 320 313 311 311 309 308 312 314 317 319 318 319 320 322 323 317 309 306 310 310 329 3 359 354 344 210 212 229 245 240 243 250 232 202 202 207 206 204 200 204 210 203 192 193 195 195 200 208 217 236 244 224 268 247 238 249 245 226 207 199 201 207 209 203 202 208 210 213 216 216
355 360 347 291 341 345 316 303 336 327 306 311 321 321 318 314 317 318 314 313 315 312 309 311 311 311 317 320 317 318 321 321 318 316 314 301 289 287 295 328 336 342 359 341 289 286 290 244 232 245 246 220 208 206 206 206 202 203 210 210 200 193 193 195 189 193 204 223 243 257 277 259 268 282 240 216 202 197 198 198 205 204 201 209 213 213 215 216
352 352 345 305 328 321 310 317 334 317 319 322 321 320 314 312 315 312 311 309 309 314 312 314 320 316 312 315 317 319 319 318 318 317 307 286 273 274 281 309 323 339 -0 352 324 284 263 226 225 240 245 245 231 210 204 203 200 202 209 212 207 199 196 200 201 190 192 206 224 247 273 246 285 344 198 199 194 188 191 192 199 202 199 205 213 212 211 212
348 348 348 328 311 305 320 340 327 315 318 316 317 318 315 316 311 307 315 313 305 313 314 314 321 314 307 309 315 321 320 316 317 313 301 286 272 265 266 287 307 336 358 345 331 332 299 237 243 251 239 247 243 210 193 193 197 201 206 210 212 207 199 199 204 201 197 204 208 211 264 242 251 33 127 162 173 176 184 189 193 198 198 202 209 208 206 209
346 346 345 338 332 325 308 319 317 317 314 310 318 323 319 316 310 307 317 318 311 313 312 312 314 312 314 319 319 322 323 320 316 308 302 296 281 266 258 274 296 328 348 335 326 327 304 261 270 285 243 227 241 205 182 184 192 201 205 207 212 213 203 195 200 209 203 199 203 208 231 226 212 192 145 137 153 173 178 181 187 194 198 200 205 205 203 208
345 345 341 338 342 126 196 248 272 286 308 324 325 326 320 311 312 316 315 315 315 315 313 312 313 316 321 324 324 325 325 319 312 304 302 303 295 276 258 263 290 317 334 333 334 329 296 271 266 270 262 250 264 304 204 188 187 196 204 205 208 214 212 197 195 208 207 193 198 207 214 196 182 198 192 161 167 179 168 174 189 197 197 196 201 204 201 205
344 346 341 336 337 318 253 267 263 263 291 330 322 318 315 308 311 317 314 316 319 316 313 309 311 319 322 323 326 327 324 315 306 303 303 305 302 286 261 255 281 297 313 334 2 10 331 300 275 269 270 258 248 296 236 194 187 189 198 204 206 208 214 208 197 201 206 199 195 201 204 185 165 183 201 197 190 179 172 185 198 195 188 190 200 206 203 203
343 344 341 332 324 316 310 311 304 293 302 319 314 311 314 315 317 316 316 323 320 313 308 303 307 315 317 322 327 325 325 321 312 312 311 306 307 294 268 251 266 282 298 338 28 24 356 325 294 292 286 254 231 236 301 200 188 186 192 203 206 204 209 214 205 197 202 208 199 195 199 187 170 181 194 180 170 173 174 182 191 187 186 192 202 201 199 199
343 342 340 332 321 318 316 316 320 318 312 311 313 315 315 315 315 312 314 319 316 312 308 307 310 312 312 319 325 324 323 319 310 312 314 309 313 307 284 265 257 266 292 326 21 32 6 341 340 333 307 262 232 230 259 256 194 184 191 201 208 205 205 212 214 201 198 209 211 199 201 203 202 203 189 164 164 173 172 166 167 170 176 187 189 187 190 194
343 341 337 330 328 326 318 313 317 318 314 316 321 319 315 316 319 318 317 316 312 309 310 311 312 313 313 316 319 319 318 314 306 305 313 313 312 312 296 280 271 262 288 315 354 31 10 343 355 3 341 280 238 225 228 255 253 194 188 198 207 209 203 206 215 212 199 202 205 195 194 197 192 180 165 150 147 152 151 148 148 144 143 155 166 173 180 184
341 342 334 325 329 335 326 313 309 308 313 321 315 310 316 322 321 316 311 309 306 302 305 308 312 317 319 312 311 313 313 313 310 304 308 310 304 306 299 283 278 277 283 303 329 9 6 348 356 8 1 326 237 217 225 276 273 235 208 199 203 209 205 202 210 216 206 195 194 186 166 155 154 155 155 151 145 141 136 136 139 134 135 144 153 165 172 174
340 341 332 317 323 332 327 312 303 301 309 313 302 302 310 309 305 308 311 309 305 298 301 308 312 315 312 306 310 318 315 314 313 304 301 298 291 293 294 285 282 282 282 295 317 348 360 349 351 356 344 336 246 209 235 299 296 244 245 206 196 204 208 200 203 212 211 195 191 189 165 150 155 161 158 154 149 144 139 136 140 142 148 154 157 166 173 174
Height
3143 3142 3141 3140 3139 3138 3137 3136 3135 3133 3132 3132 3131 3130 3129 3128 3127 3127 3126 3126 3125 3125 3125 3124 3124 3124 3123 3123 3123 3123 3123 3124 3124 3124 3126 3129 3129 3129 3131 3133 3134 3134 3136 3138 3140 3142 3145 3147 3149 3151 3152 3154 3155 3157 3158 3158 3160 3161 3161 3161 3159 3159 3160 3160 3160 3161 3162 3163 3165 3166 3166 3167 3167 3168 3168 3168 3170 3170 3169 3170 3170 3169 3170 3170 3171 3171 3171 3172
3141 3140 3139 3138 3137 3136 3135 3134 3133 3132 3131 3130 3129 3129 3128 3127 3126 3125 3125 3124 3124 3123 3123 3122 3122 3122 3122 3122 3121 3122 3121 3121 3121 3123 3126 3126 3126 3127 3129 3131 3132 3133 3134 3136 3139 3141 3144 3146 3148 3149 3151 3153 3154 3156 3157 3158 3160 3160 3161 3161 3158 3159 3160 3161 3161 3161 3162 3163 3164 3165 3166 3166 3167 3168 3168 3168 3169 3170 3170 3170 3169 3169 3169 3169 3170 3171 3172 3173
3140 3139 3138 3137 3136 3135 3134 3133 3131 3130 3129 3128 3128 3127 3126 3125 3124 3123 3123 3123 3122 3122 3121 3120 3120 3120 3120 3120 3120 3120 3120 3120 3119 3122 3124 3122 3122 3125 3127 3129 3130 3131 3133 3136 3138 3140 3143 3145 3147 3148 3149 3151 3153 3155 3157 3158 3160 3160 3161 3160 3158 3160 3161 3161 3161 3161 3162 3162 3162 3164 3165 3165 3167 3168 3168 3168 3169 3170 3169 3168 3168 3168 3168 3168 3169 3171 3172 3173
3139 3138 3137 3136 3135 3134 3132 3131 3130 3129 3128 3127 3126 3125 3124 3123 3123 3122 3121 3121 3121 3120 3119 3118 3118 3118 3118 3118 3118 3118 3118 3118 3117 3119 3120 3119 3120 3123 3125 3127 3128 3130 3132 3134 3136 3138 3141 3143 3145 3147 3148 3150 3152 3154 3156 3157 3159 3160 3160 3159 3158 3160 3161 3161 3162 3162 3163 3163 3162 3164 3165 3165 3166 3168 3167 3168 3168 3169 3169 3167 3167 3168 3168 3168 3169 3171 3172 3172
3138 3137 3136 3135 3133 3132 3131 3130 3129 3128 3126 3125 3124 3123 3122 3122 3121 3120 3119 3119 3119 3118 3117 3117 3116 3116 3116 3116 3116 3116 3116 3116 3115 3117 3119 3118 3119 3122 3124 3125 3127 3128 3130 3131 3133 3136 3138 3140 3143 3145 3146 3148 3151 3152 3154 3156 3158 3159 3159 3158 3159 3160 3161 3162 3162 3163 3163 3163 3164 3164 3165 3165 3166 3167 3167 3167 3167 3167 3168 3167 3168 3169 3168 3169 3169 3171 3172 3173
3137 3135 3134 3133 3132 3130 3129 3128 3127 3126 3125 3123 3122 3122 3121 3120 3119 3118 3117 3117 3116 3116 3116 3115 3114 3114 3114 3114 3114 3115 3115 3115 3114 3116 3118 3118 3118 3120 3122 3124 3125 3126 3127 3128 3131 3133 3135 3137 3140 3142 3144 3146 3149 3150 3152 3155 3157 3158 3158 3158 3159 3160 3160 3161 3161 3162 3163 3163 3163 3163 3164 3166 3166 3167 3167 3167 3167 3167 3167 3167 3169 3169 3169 3170 3170 3171 3172 3173
3135 3134 3132 3131 3130 3128 3127 3126 3125 3124 3123 3122 3121 3120 3119 3118 3117 3116 3115 3115 3114 3114 3114 3113 3112 3113 3112 3112 3112 3112 3113 3114 3113 3113 3116 3117 3117 3118 3120 3122 3123 3124 3125 3127 3128 3130 3133 3135 3137 3140 3143 3145 3147 3149 3151 3154 3156 3156 3157 3158 3158 3159 3159 3160 3161 3161 3162 3162 3162 3163 3164 3166 3166 3165 3166 3166 3166 3166 3166 3167 3169 3169 3169 3170 3171 3171 3172 3173
3133 3132 3131 3129 3128 3127 3125 3124 3123 3122 3121 3120 3119 3118 3117 3116 3115 3114 3113 3113 3112 3112 3112 3111 3110 3111 3111 3111 3110 3110 3112 3113 3111 3111 3114 3115 3116 3117 3118 3120 3121 3122 3124 3126 3127 3129 3131 3133 3135 3138 3141 3143 3146 3148 3150 3152 3154 3155 3156 3157 3157 3157 3158 3159 3159 3160 3160 3161 3162 3162 3162 3164 3165 3165 3166 3166 3165 3165 3165 3166 3168 3169 3169 3170 3171 3171 3172 3173
3131 3130 3129 3127 3126 3124 3123 3122 3121 3120 3118 3117 3117 3116 3115 3114 3113 3112 3111 3111 3110 3109 3109 3109 3108 3108 3109 3109 3108 3108 3111 3111 3109 3110 3112 3114 3115 3115 3116 3118 3120 3121 3123 3125 3127 3128 3129 3131 3133 3137 3140 3143 3146 3147 3149 3150 3151 3153 3153 3155 3155 3155 3156 3157 3157 3159 3159 3159 3160 3162 3161 3163 3165 3166 3166 3166 3165 3164 3164 3166 3168 3169 3169 3170 3171 3171 3172 3173
3130 3128 3127 3125 3124 3122 3121 3120 3118 3117 3116 3115 3114 3113 3113 3112 3111 3110 3109 3109 3108 3107 3107 3106 3106 3106 3106 3106 3106 3108 3110 3109 3108 3108 3110 3112 3113 3114 3115 3116 3118 3120 3122 3123 3125 3126 3127 3130 3133 3137 3140 3143 3145 3146 3148 3148 3149 3151 3152 3153 3153 3153 3153 3155 3156 3157 3158 3158 3159 3160 3161 3162 3164 3165 3164 3164 3165 3164 3165 3167 3168 3169 3169 3170 3171 3171 3172 3173
3129 3127 3125 3124 3122 3121 3119 3117 3116 3115 3113 3112 3111 3110 3110 3109 3109 3108 3107 3106 3106 3105 3104 3104 3104 3103 3104 3103 3104 3107 3108 3107 3106 3107 3108 3109 3111 3113 3114 3115 3116 3118 3120 3122 3123 3125 3127 3129 3133 3138 3139 3141 3143 3145 3146 3146 3146 3149 3151 3152 3152 3151 3151 3152 3154 3156 3157 3157 3158 3160 3160 3162 3164 3164 3162 3161 3164 3164 3164 3166 3167 3168 3168 3169 3171 3171 3172 3173
3128 3126 3124 3123 3121 3119 3117 3116 3114 3112 3111 3109 3108 3107 3107 3106 3106 3105 3105 3104 3103 3103 3102 3102 3101 3101 3100 3099 3102 3106 3106 3104 3104 3104 3105 3107 3109 3110 3111 3113 3114 3116 3118 3120 3122 3124 3127 3129 3132 3136 3138 3139 3142 3143 3143 3144 3145 3146 3148 3150 3151 3151 3150 3150 3151 3153 3155 3155 3157 3159 3160 3161 3161 3163 3162 3160 3162 3163 3164 3165 3166 3167 3168 3169 3170 3171 3172 3173
3127 3125 3123 3122 3120 3118 3116 3114 3112 3110 3109 3107 3105 3104 3104 3103 3103 3102 3102 3101 3101 3100 3100 3099 3098 3098 3096 3095 3101 3104 3103 3102 3102 3101 3102 3104 3107 3108 3109 3111 3113 3115 3117 3119 3121 3123 3125 3127 3130 3134 3137 3139 3140 3141 3142 3143 3144 3144 3145 3146 3147 3148 3148 3149 3150 3151 3152 3153 3156 3158 3158 3158 3159 3161 3161 3158 3159 3162 3163 3164 3165 3166 3167 3168 3169 3170 3171 3172
3126 3124 3122 3120 3118 3116 3114 3112 3110 3109 3107 3104 3103 3101 3100 3100 3099 3098 3098 3098 3098 3097 3097 3096 3095 3095 3092 3093 3100 3101 3099 3100 3099 3098 3100 3101 3104 3106 3108 3109 3111 3113 3115 3117 3120 3122 3124 3126 3129 3132 3135 3136 3138 3140 3141 3141 3142 3143 3143 3143 3144 3144 3144 3147 3149 3149 3151 3152 3154 3156 3155 3156 3157 3159 3159 3157 3157 3160 3161 3162 3163 3164 3165 3167 3168 3169 3171 3171
3125 3123 3121 3119 3117 3114 3112 3110 3108 3106 3105 3103 3100 3099 3098 3097 3095 3094 3094 3094 3094 3094 3094 3093 3092 3092 3089 3091 3097 3096 3095 3096 3096 3098 3100 3100 3102 3104 3106 3108 3110 3112 3114 3116 3118 3120 3122 3125 3128 3129 3131 3134 3136 3137 3138 3138 3138 3140 3140 3140 3141 3142 3143 3145 3146 3147 3149 3150 3152 3154 3154 3154 3155 3155 3156 3156 3155 3157 3159 3160 3162 3163 3164 3166 3167 3169 3170 3171
3124 3122 3120 3118 3115 3113 3110 3108 3106 3104 3102 3100 3098 3096 3095 3093 3091 3090 3090 3090 3091 3091 3090 3089 3089 3089 3087 3089 3092 3093 3094 3095 3097 3099 3099 3100 3101 3102 3104 3106 3108 3110 3112 3114 3117 3118 3120 3124 3126 3127 3129 3131 3133 3134 3136 3135 3135 3136 3137 3137 3138 3140 3142 3143 3144 3145 3146 3148 3150 3151 3152 3153 3153 3152 3152 3153 3153 3155 3157 3158 3161 3162 3163 3164 3165 3167 3168 3169
3123 3121 3119 3117 3114 3112 3109 3106 3104 3101 3099 3098 3096 3094 3092 3090 3088 3086 3087 3087 3087 3087 3086 3085 3085 3085 3085 3087 3088 3090 3092 3093 3095 3095 3096 3098 3100 3102 3104 3104 3106 3109 3111 3113 3115 3116 3119 3121 3123 3125 3126 3128 3129 3132 3133 3130 3130 3133 3135 3136 3137 3138 3139 3140 3141 3141 3143 3145 3146 3148 3150 3151 3150 3150 3150 3152 3152 3153 3155 3157 3160 3161 3162 3163 3164 3165 3167 3168
3121 3119 3117 3115 3112 3110 3107 3104 3102 3099 3097 3095 3093 3091 3090 3088 3085 3082 3083 3084 3083 3083 3082 3081 3081 3080 3082 3083 3084 3087 3088 3089 3092 3092 3093 3096 3098 3101 3102 3104 3106 3107 3110 3111 3112 3114 3116 3118 3121 3123 3123 3123 3124 3126 3125 3124 3128 3131 3132 3134 3136 3136 3136 3136 3136 3137 3138 3141 3144 3145 3147 3149 3149 3148 3149 3151 3151 3152 3154 3156 3159 3161 3161 3162 3162 3164 3165 3167
3119 3117 3115 3113 3111 3108 3106 3103 3100 3098 3095 3093 3092 3089 3088 3086 3083 3080 3079 3081 3080 3079 3079 3077 3075 3076 3078 3080 3081 3083 3084 3086 3088 3089 3091 3093 3096 3098 3100 3103 3105 3106 3108 3108 3109 3111 3113 3116 3117 3116 3115 3115 3117 3120 3121 3124 3129 3130 3131 3132 3133 3134 3134 3134 3133 3133 3135 3137 3140 3142 3143 3147 3149 3147 3147 3149 3150 3152 3154 3155 3157 3160 3161 3161 3161 3162 3164 3165
3117 3115 3113 3111 3109 3106 3104 3102 3098 3096 3093 3090 3088 3086 3082 3079 3078 3075 3073 3076 3077 3076 3075 3073 3071 3070 3075 3079 3080 3079 3080 3081 3082 3085 3088 3089 3093 3095 3097 3100 3103 3104 3104 3104 3106 3108 3111 3112 3109 3106 3107 3112 3115 3118 3121 3126 3129 3129 3129 3129 3130 3131 3131 3132 3130 3130 3134 3134 3135 3139 3141 3144 3148 3146 3144 3146 3149 3150 3152 3153 3154 3156 3158 3159 3160 3161 3162 3164
3117 3114 3111 3110 3108 3105 3103 3100 3097 3095 3092 3089 3085 3082 3078 3074 3073 3070 3065 3066 3072 3073 3069 3069 3068 3064 3069 3076 3078 3078 3078 3077 3077 3080 3084 3087 3089 3092 3093 3096 3099 3099 3098 3102 3106 3107 3110 3106 3099 3101 3107 3112 3115 3118 3121 3124 3126 3127 3126 3126 3127 3128 3129 3130 3128 3127 3131 3133 3132 3136 3139 3141 3145 3146 3143 3142 3145 3147 3147 3150 3152 3154 3156 3157 3158 3159 3161 3163
3116 3113 3110 3108 3106 3104 3102 3099 3097 3094 3091 3089 3085 3083 3080 3078 3076 3072 3064 3056 3061 3068 3064 3063 3064 3059 3064 3072 3075 3076 3074 3074 3075 3076 3080 3084 3085 3086 3089 3091 3093 3094 3096 3101 3103 3105 3105 3096 3093 3102 3109 3112 3115 3117 3119 3121 3123 3124 3124 3124 3123 3124 3126 3127 3126 3125 3127 3130 3130 3132 3136 3138 3141 3144 3143 3139 3140 3143 3145 3147 3149 3152 3153 3155 3156 3158 3159 3161
3114 3111 3109 3106 3104 3102 3100 3098 3096 3092 3091 3088 3085 3082 3081 3079 3076 3073 3068 3055 3051 3058 3058 3056 3057 3056 3060 3066 3071 3072 3068 3070 3073 3073 3077 3080 3080 3083 3086 3087 3089 3092 3094 3096 3097 3098 3095 3088 3092 3104 3108 3110 3112 3114 3116 3118 3120 3121 3122 3122 3120 3120 3122 3123 3124 3124 3125 3127 3128 3130 3132 3135 3137 3140 3142 3139 3138 3140 3143 3145 3147 3150 3151 3152 3154 3156 3157 3158
3112 3109 3107 3105 3103 3100 3097 3096 3094 3091 3089 3087 3084 3082 3080 3079 3076 3071 3066 3057 3049 3051 3052 3049 3049 3051 3055 3062 3068 3067 3063 3067 3070 3071 3074 3076 3078 3081 3082 3084 3087 3089 3090 3091 3093 3092 3088 3087 3095 3102 3104 3107 3109 3110 3113 3115 3116 3117 3118 3119 3119 3118 3118 3119 3121 3123 3124 3124 3125 3128 3130 3131 3134 3136 3139 3139 3138 3138 3140 3143 3145 3146 3147 3149 3151 3153 3154 3156
3110 3107 3105 3102 3101 3099 3096 3094 3093 3090 3087 3085 3084 3083 3080 3078 3076 3071 3064 3057 3051 3050 3049 3046 3045 3047 3052 3057 3060 3060 3061 3063 3064 3068 3071 3073 3075 3077 3079 3083 3083 3084 3085 3088 3091 3089 3087 3091 3096 3098 3100 3103 3105 3106 3108 3110 3112 3113 3113 3115 3117 3117 3117 3116 3117 3120 3122 3121 3121 3124 3127 3128 3129 3132 3134 3136 3136 3135 3136 3138 3140 3141 3142 3144 3146 3148 3151 3154
3108 3105 3103 3100 3098 3096 3094 3091 3090 3089 3086 3084 3082 3081 3080 3077 3075 3072 3065 3058 3053 3050 3048 3046 3046 3047 3050 3052 3052 3057 3059 3055 3059 3067 3068 3070 3073 3075 3077 3079 3079 3080 3083 3087 3089 3086 3085 3091 3095 3095 3097 3099 3101 3102 3104 3107 3109 3109 3110 3113 3115 3116 3116 3115 3115 3117 3118 3118 3118 3118 3120 3122 3124 3126 3129 3131 3132 3132 3132 3132 3134 3137 3138 3140 3142 3144 3148 3151
3106 3103 3100 3098 3095 3093 3093 3090 3088 3086 3084 3083 3081 3079 3078 3076 3075 3072 3068 3063 3056 3052 3051 3050 3050 3050 3050 3051 3051 3054 3052 3049 3057 3064 3063 3067 3071 3073 3074 3074 3076 3077 3082 3087 3085 3079 3081 3088 3091 3092 3094 3095 3096 3097 3100 3104 3105 3104 3108 3112 3113 3114 3114 3113 3114 3114 3114 3115 3116 3115 3115 3117 3118 3120 3124 3126 3128 3129 3130 3128 3129 3133 3136 3137 3139 3142 3144 3147
3104 3102 3099 3097 3093 3091 3089 3088 3086 3084 3082 3080 3078 3077 3075 3074 3074 3072 3071 3069 3059 3054 3054 3053 3052 3051 3050 3050 3049 3050 3049 3050 3055 3057 3060 3065 3067 3070 3070 3070 3074 3075 3079 3081 3074 3072 3079 3082 3084 3089 3091 3091 3091 3093 3097 3101 3101 3103 3108 3110 3111 3113 3112 3112 3112 3112 3113 3113 3112 3112 3113 3114 3114 3116 3120 3122 3124 3126 3128 3128 3126 3128 3132 3135 3136 3139 3141 3144
3103 3100 3097 3095 3093 3090 3087 3085 3084 3082 3080 3078 3076 3074 3073 3072 3072 3071 3073 3071 3060 3055 3056 3054 3052 3050 3048 3048 3048 3050 3050 3052 3055 3056 3060 3063 3063 3066 3067 3068 3074 3076 3077 3076 3072 3075 3079 3079 3082 3086 3086 3086 3088 3091 3096 3098 3099 3102 3106 3108 3109 3110 3110 3111 3111 3110 3112 3110 3107 3109 3112 3111 3111 3113 3115 3117 3119 3120 3123 3126 3126 3124 3127 3131 3132 3135 3138 3140
3101 3098 3096 3093 3091 3089 3086 3083 3081 3079 3077 3076 3074 3072 3071 3071 3070 3070 3072 3067 3059 3056 3055 3053 3052 3049 3047 3047 3048 3050 3051 3052 3055 3056 3058 3059 3061 3064 3066 3069 3073 3074 3074 3074 3073 3075 3077 3079 3082 3082 3081 3085 3088 3090 3092 3095 3098 3102 3104 3105 3106 3107 3108 3109 3109 3110 3110 3105 3103 3105 3109 3110 3109 3109 3110 3110 3112 3115 3118 3122 3124 3123 3124 3126 3129 3131 3134 3137
3099 3097 3094 3092 3089 3087 3085 3083 3080 3078 3075 3073 3072 3070 3070 3069 3069 3070 3069 3063 3058 3056 3051 3049 3050 3048 3047 3047 3047 3050 3051 3051 3053 3055 3056 3057 3058 3061 3064 3067 3068 3070 3071 3070 3070 3073 3076 3077 3076 3076 3079 3083 3087 3088 3089 3092 3096 3099 3101 3102 3104 3104 3106 3106 3106 3108 3105 3101 3101 3102 3105 3108 3106 3105 3107 3106 3107 3111 3114 3117 3120 3121 3120 3123 3126 3128 3131 3134
3097 3094 3092 3090 3088 3085 3083 3082 3079 3075 3072 3071 3070 3069 3068 3068 3068 3070 3068 3063 3060 3058 3053 3049 3047 3046 3047 3047 3047 3048 3050 3051 3051 3051 3053 3055 3055 3056 3058 3059 3061 3064 3064 3063 3067 3071 3071 3071 3072 3075 3077 3079 3082 3084 3085 3088 3092 3095 3097 3099 3100 3101 3102 3102 3102 3101 3099 3099 3102 3103 3103 3103 3100 3102 3104 3105 3107 3109 3109 3112 3115 3117 3117 3118 3121 3125 3128 3131
3094 3092 3090 3088 3085 3083 3081 3079 3075 3072 3071 3071 3069 3068 3068 3069 3069 3069 3067 3065 3062 3060 3056 3053 3049 3047 3048 3047 3047 3046 3045 3047 3050 3051 3051 3053 3053 3053 3055 3057 3059 3060 3059 3062 3067 3067 3066 3067 3070 3071 3071 3073 3076 3078 3080 3082 3086 3089 3091 3093 3094 3095 3097 3099 3098 3097 3097 3098 3101 3104 3103 3098 3097 3100 3101 3103 3107 3107 3107 3109 3110 3113 3114 3114 3117 3120 3124 3127
3092 3089 3087 3085 3082 3080 3078 3075 3071 3071 3072 3071 3069 3068 3069 3070 3069 3067 3065 3063 3061 3058 3056 3053 3050 3048 3049 3049 3049 3048 3042 3040 3046 3049 3048 3049 3051 3051 3052 3055 3057 3058 3060 3064 3064 3062 3062 3061 3060 3061 3065 3068 3071 3073 3076 3079 3082 3084 3086 3089 3089 3088 3090 3093 3094 3094 3096 3097 3099 3103 3101 3094 3094 3096 3098 3102 3105 3105 3106 3108 3109 3110 3110 3112 3115 3117 3120 3124
3090 3086 3083 3083 3080 3077 3075 3073 3071 3072 3072 3070 3069 3070 3070 3070 3068 3066 3064 3062 3060 3057 3055 3054 3053 3050 3048 3048 3049 3049 3046 3042 3041 3040 3041 3045 3048 3049 3049 3051 3055 3059 3061 3061 3060 3059 3058 3054 3054 3059 3063 3065 3067 3070 3075 3078 3079 3081 3085 3086 3083 3083 3087 3090 3091 3092 3094 3095 3095 3097 3094 3091 3093 3095 3097 3101 3102 3103 3105 3106 3109 3109 3107 3109 3112 3114 3118 3121
3089 3084 3081 3080 3078 3076 3075 3074 3074 3073 3071 3070 3071 3071 3071 3070 3069 3067 3065 3062 3061 3059 3055 3054 3055 3053 3049 3045 3044 3044 3046 3044 3039 3036 3036 3038 3042 3047 3049 3049 3052 3055 3057 3056 3055 3056 3054 3052 3054 3060 3061 3062 3064 3067 3071 3073 3074 3077 3080 3078 3078 3084 3089 3090 3090 3090 3093 3094 3093 3092 3091 3091 3094 3093 3094 3097 3098 3100 3102 3102 3106 3107 3105 3105 3108 3111 3115 3118
3088 3083 3080 3079 3077 3075 3075 3074 3074 3073 3071 3071 3072 3071 3070 3069 3068 3067 3065 3063 3062 3061 3059 3056 3055 3055 3051 3046 3045 3045 3043 3041 3040 3038 3035 3035 3039 3044 3047 3049 3053 3056 3057 3057 3054 3053 3052 3050 3052 3056 3055 3057 3062 3066 3068 3071 3071 3072 3072 3073 3080 3087 3088 3088 3088 3088 3091 3092 3090 3089 3089 3090 3090 3089 3090 3093 3093 3095 3097 3099 3102 3104 3102 3101 3103 3108 3111 3115
3086 3083 3079 3078 3076 3075 3074 3074 3073 3072 3071 3071 3071 3070 3069 3068 3067 3066 3064 3063 3062 3061 3060 3058 3056 3056 3054 3050 3048 3047 3045 3043 3042 3041 3038 3036 3036 3035 3036 3039 3044 3047 3051 3053 3052 3051 3051 3048 3048 3051 3051 3054 3060 3063 3064 3066 3068 3068 3068 3073 3079 3081 3081 3083 3085 3085 3088 3089 3086 3084 3084 3084 3083 3082 3083 3087 3088 3089 3092 3095 3098 3101 3100 3098 3100 3104 3108 3111
3086 3083 3081 3080 3078 3075 3075 3074 3073 3071 3071 3071 3071 3069 3069 3068 3066 3065 3064 3063 3062 3060 3060 3059 3056 3055 3054 3053 3049 3048 3048 3046 3044 3044 3042 3038 3034 3032 3033 3033 3032 3033 3037 3040 3043 3046 3047 3047 3045 3045 3047 3051 3055 3057 3056 3058 3062 3066 3068 3071 3073 3075 3076 3078 3079 3080 3082 3084 3083 3082 3080 3078 3077 3076 3077 3079 3082 3085 3088 3090 3093 3097 3099 3098 3099 3101 3104 3108
3085 3083 3082 3080 3077 3075 3074 3073 3072 3071 3070 3071 3070 3069 3068 3067 3065 3064 3064 3063 3062 3061 3060 3058 3056 3055 3053 3052 3051 3049 3048 3046 3045 3045 3044 3041 3036 3032 3031 3031 3030 3031 3032 3034 3037 3041 3043 3044 3041 3040 3043 3045 3045 3046 3047 3050 3055 3059 3062 3064 3067 3071 3074 3076 3077 3077 3078 3079 3079 3079 3077 3074 3073 3073 3072 3073 3077 3080 3083 3086 3089 3093 3096 3097 3099 3100 3101 3105
3084 3082 3081 3079 3076 3074 3072 3071 3071 3071 3071 3071 3069 3068 3067 3066 3064 3063 3063 3063 3062 3061 3060 3058 3056 3055 3053 3052 3051 3048 3047 3045 3045 3045 3043 3042 3040 3035 3031 3031 3032 3031 3031 3031 3034 3038 3040 3040 3038 3035 3037 3038 3037 3040 3044 3048 3052 3054 3057 3059 3062 3066 3069 3072 3073 3074 3075 3076 3075 3076 3075 3070 3069 3070 3068 3070 3073 3075 3079 3083 3087 3090 3094 3095 3097 3099 3101 3103
3082 3080 3079 3077 3075 3072 3070 3068 3069 3070 3070 3069 3068 3067 3067 3066 3064 3063 3062 3061 3061 3060 3059 3057 3055 3054 3053 3051 3050 3048 3047 3045 3044 3044 3042 3040 3040 3038 3035 3035 3034 3034 3033 3031 3030 3032 3034 3034 3034 3032 3032 3034 3036 3039 3043 3047 3052 3055 3056 3058 3060 3062 3064 3065 3067 3069 3072 3074 3073 3074 3073 3069 3067 3066 3063 3065 3069 3072 3076 3081 3084 3088 3091 3093 3094 3097 3100 3101
3079 3078 3077 3075 3072 3069 3068 3067 3067 3068 3068 3067 3067 3066 3065 3065 3064 3062 3061 3060 3060 3059 3057 3055 3054 3053 3052 3051 3049 3048 3047 3044 3043 3042 3040 3037 3035 3035 3037 3037 3034 3033 3033 3031 3029 3029 3028 3029 3031 3030 3029 3031 3034 3038 3041 3044 3049 3052 3053 3054 3056 3057 3059 3062 3065 3067 3069 3071 3072 3072 3071 3068 3066 3063 3060 3063 3068 3072 3076 3080 3082 3084 3088 3091 3091 3094 3097 3099
3077 3075 3074 3073 3070 3068 3068 3068 3067 3067 3066 3066 3066 3065 3064 3064 3063 3061 3060 3059 3058 3058 3056 3054 3053 3051 3050 3049 3048 3047 3046 3044 3041 3039 3039 3036 3032 3033 3036 3036 3034 3034 3034 3034 3035 3035 3031 3028 3029 3028 3027 3028 3030 3031 3034 3037 3042 3045 3047 3050 3052 3055 3058 3061 3065 3067 3067 3068 3070 3071 3070 3068 3067 3067 3065 3066 3070 3073 3075 3078 3080 3082 3085 3088 3089 3091 3095 3097
3073 3070 3069 3068 3067 3066 3066 3066 3066 3065 3064 3064 3063 3063 3062 3062 3062 3060 3059 3058 3057 3057 3055 3053 3052 3050 3049 3048 3047 3047 3046 3044 3041 3038 3037 3034 3030 3030 3033 3033 3033 3034 3034 3035 3037 3036 3031 3027 3027 3027 3026 3025 3025 3025 3025 3029 3035 3040 3044 3047 3050 3053 3055 3058 3062 3063 3063 3065 3067 3068 3068 3068 3068 3069 3068 3070 3071 3073 3075 3076 3078 3080 3083 3086 3087 3089 3093 3097
3072 3068 3064 3062 3063 3064 3063 3063 3063 3061 3061 3061 3061 3061 3061 3061 3060 3060 3058 3057 3056 3056 3054 3052 3051 3050 3048 3047 3046 3046 3045 3043 3040 3037 3035 3033 3029 3028 3030 3031 3031 3031 3030 3032 3033 3031 3028 3026 3026 3026 3024 3022 3022 3023 3025 3027 3031 3037 3041 3045 3048 3051 3053 3056 3058 3059 3061 3063 3064 3066 3067 3068 3067 3068 3069 3070 3072 3073 3074 3075 3076 3078 3080 3083 3086 3088 3092 3096
3073 3069 3065 3060 3059 3062 3062 3062 3062 3060 3060 3061 3061 3061 3060 3059 3058 3058 3057 3056 3055 3054 3053 3051 3050 3049 3048 3047 3045 3044 3043 3042 3039 3036 3034 3032 3029 3027 3028 3028 3029 3029 3029 3030 3030 3027 3025 3025 3025 3024 3023 3022 3021 3021 3024 3025 3026 3031 3037 3042 3045 3048 3050 3052 3053 3056 3059 3062 3062 3063 3066 3067 3066 3068 3069 3070 3071 3074 3074 3073 3074 3076 3079 3082 3085 3087 3089 3093
3072 3070 3067 3063 3060 3060 3060 3060 3060 3060 3060 3061 3060 3060 3059 3057 3057 3057 3056 3055 3054 3054 3051 3049 3049 3048 3048 3047 3045 3043 3042 3040 3037 3035 3033 3031 3029 3027 3026 3027 3028 3029 3028 3028 3028 3025 3023 3023 3024 3022 3020 3019 3019 3020 3022 3024 3025 3028 3033 3038 3041 3044 3046 3048 3050 3054 3058 3059 3060 3062 3064 3065 3066 3068 3069 3069 3070 3072 3072 3071 3074 3076 3079 3081 3083 3085 3087 3090
3071 3067 3065 3063 3061 3060 3059 3059 3059 3059 3059 3059 3059 3058 3058 3057 3056 3056 3055 3054 3053 3052 3051 3048 3047 3047 3047 3046 3045 3043 3041 3039 3036 3034 3033 3031 3029 3028 3027 3026 3027 3027 3027 3027 3026 3023 3021 3021 3020 3018 3016 3016 3017 3018 3020 3024 3026 3028 3031 3034 3038 3041 3043 3046 3050 3053 3056 3058 3060 3061 3062 3064 3065 3067 3069 3070 3069 3070 3071 3072 3074 3076 3078 3080 3082 3084 3086 3089
3070 3066 3062 3060 3059 3059 3059 3059 3058 3058 3057 3058 3058 3058 3057 3056 3055 3055 3054 3053 3051 3050 3050 3048 3046 3046 3045 3045 3044 3042 3041 3039 3036 3034 3032 3031 3030 3030 3029 3029 3027 3025 3024 3026 3025 3022 3021 3020 3018 3016 3014 3015 3017 3018 3019 3022 3024 3026 3029 3032 3035 3038 3042 3045 3048 3051 3054 3056 3059 3060 3061 3062 3064 3066 3069 3069 3069 3069 3071 3072 3074 3076 3078 3081 3083 3085 3086 3090
3069 3066 3062 3059 3057 3058 3058 3058 3057 3057 3056 3057 3057 3057 3056 3055 3055 3053 3052 3051 3051 3049 3048 3047 3045 3044 3044 3043 3042 3041 3040 3039 3036 3034 3032 3031 3031 3031 3029 3029 3029 3026 3024 3025 3025 3021 3019 3019 3017 3015 3015 3016 3017 3018 3019 3021 3023 3023 3025 3029 3032 3036 3039 3042 3045 3048 3051 3054 3056 3058 3060 3061 3062 3064 3066 3068 3068 3068 3070 3072 3074 3077 3080 3083 3086 3087 3089 3092
3067 3064 3062 3059 3056 3056 3057 3057 3056 3056 3055 3056 3056 3055 3054 3053 3053 3051 3049 3048 3049 3048 3047 3046 3045 3043 3042 3041 3041 3040 3038 3037 3035 3033 3032 3030 3030 3031 3029 3028 3029 3028 3026 3026 3025 3022 3020 3020 3019 3018 3018 3016 3016 3019 3022 3023 3023 3022 3023 3026 3030 3033 3037 3040 3044 3047 3050 3052 3054 3056 3058 3060 3061 3062 3064 3065 3066 3067 3069 3072 3074 3076 3080 3082 3085 3089 3093 3095